When you browse on this site, cookies collect data to enhance your experience and personalize the content and advertising you see.
Visit our Privacy Policy to learn more. By continuing to use the site, you agree to this use of cookies and data.
  • In Spain
  • List of Countries
  • For 7 days
  • Water Temperature
  • Weather Map
  • Weather Widgets
  • user-avatar
    Login

    Hourly Weather Saurimo

    Today, 9 December, Monday

    Time Temperature Precipitation Wind Pressure Humidity
    00:00 +20°C° 0.3 mm 1 mps 668 mmHg 97%
    01:00 +20°C° 0 mm 1 mps 668 mmHg 98%
    02:00 +20°C° 0 mm 1 mps 668 mmHg 98%
    03:00 +19°C° 0 mm 1 mps 668 mmHg 98%
    04:00 +19°C° 0 mm 1 mps 668 mmHg 98%
    05:00 +20°C° 0 mm 1 mps 669 mmHg 96%
    06:00 +20°C° 0 mm 1 mps 669 mmHg 95%
    07:00 +21°C° 0 mm 1 mps 670 mmHg 93%
    08:00 +23°C° 0 mm 1 mps 670 mmHg 87%
    09:00 +24°C° 0 mm 2 mps 670 mmHg 82%
    10:00 +26°C° 0 mm 2 mps 670 mmHg 76%
    11:00 +26°C° 0.4 mm 2 mps 670 mmHg 75%
    12:00 +27°C° 0.4 mm 2 mps 669 mmHg 73%
    13:00 +28°C° 0.4 mm 1 mps 668 mmHg 72%
    14:00 +27°C° 0.8 mm 2 mps 668 mmHg 76%
    15:00 +27°C° 0.8 mm 2 mps 668 mmHg 81%
    16:00 +26°C° 0.8 mm 2 mps 667 mmHg 85%
    17:00 +25°C° 0.7 mm 2 mps 667 mmHg 88%
    18:00 +23°C° 0.7 mm 1 mps 668 mmHg 91%
    19:00 +22°C° 0.7 mm 1 mps 668 mmHg 94%
    20:00 +21°C° 0.6 mm 1 mps 668 mmHg 95%
    21:00 +21°C° 0.6 mm 1 mps 669 mmHg 95%
    22:00 +21°C° 0.6 mm 1 mps 669 mmHg 96%
    23:00 +21°C° 0.6 mm 1 mps 669 mmHg 97%

    Tomorrow, 10 December, Tuesday

    Time Temperature Precipitation Wind Pressure Humidity
    00:00 +20°C° 0.6 mm 1 mps 669 mmHg 97%
    01:00 +20°C° 0.6 mm 1 mps 668 mmHg 98%
    02:00 +20°C° 0.3 mm 1 mps 668 mmHg 98%
    03:00 +20°C° 0.3 mm 1 mps 668 mmHg 98%
    04:00 +20°C° 0.3 mm 1 mps 669 mmHg 98%
    05:00 +20°C° 0.5 mm 1 mps 669 mmHg 98%
    06:00 +18°C° 0.5 mm 0 mps 670 mmHg 98%
    07:00 +18°C° 0.5 mm 0 mps 670 mmHg 98%
    08:00 +19°C° 0.6 mm 0 mps 670 mmHg 98%
    09:00 +21°C° 0.6 mm 1 mps 670 mmHg 97%
    10:00 +21°C° 0.6 mm 1 mps 670 mmHg 97%
    11:00 +22°C° 1 mm 1 mps 670 mmHg 94%
    12:00 +23°C° 1 mm 1 mps 670 mmHg 92%
    13:00 +24°C° 1 mm 1 mps 670 mmHg 90%
    14:00 +23°C° 0.7 mm 1 mps 669 mmHg 91%
    15:00 +23°C° 0.7 mm 1 mps 668 mmHg 91%
    16:00 +23°C° 0.7 mm 1 mps 668 mmHg 92%
    17:00 +22°C° 0.5 mm 1 mps 668 mmHg 94%
    18:00 +22°C° 0.5 mm 1 mps 669 mmHg 95%
    19:00 +21°C° 0.5 mm 1 mps 669 mmHg 97%
    20:00 +21°C° 0.4 mm 1 mps 669 mmHg 97%
    21:00 +21°C° 0.4 mm 1 mps 669 mmHg 97%
    22:00 +21°C° 0.4 mm 1 mps 670 mmHg 97%
    23:00 +20°C° 0 mm 1 mps 669 mmHg 97%

    Day after tomorrow, 11 December, Wednesday

    Time Temperature Precipitation Wind Pressure Humidity
    00:00 +20°C° 0 mm 1 mps 669 mmHg 97%
    01:00 +20°C° 0 mm 1 mps 669 mmHg 97%
    02:00 +20°C° 0 mm 1 mps 668 mmHg 97%
    03:00 +19°C° 0 mm 1 mps 668 mmHg 98%
    04:00 +19°C° 0 mm 1 mps 668 mmHg 98%
    05:00 +19°C° 0 mm 1 mps 669 mmHg 97%
    06:00 +20°C° 0 mm 1 mps 669 mmHg 96%
    07:00 +20°C° 0 mm 1 mps 670 mmHg 96%
    08:00 +22°C° 0 mm 1 mps 670 mmHg 89%
    09:00 +23°C° 0 mm 2 mps 670 mmHg 83%
    10:00 +25°C° 0 mm 2 mps 670 mmHg 76%
    11:00 +26°C° 0.4 mm 1 mps 670 mmHg 75%
    12:00 +27°C° 0.4 mm 1 mps 670 mmHg 73%
    13:00 +28°C° 0.4 mm 1 mps 669 mmHg 72%
    14:00 +28°C° 1.3 mm 1 mps 669 mmHg 75%
    15:00 +25°C° 1.3 mm 0 mps 669 mmHg 77%
    16:00 +25°C° 1.3 mm 0 mps 668 mmHg 80%
    17:00 +23°C° 1 mm 0 mps 668 mmHg 84%
    18:00 +23°C° 1 mm 1 mps 669 mmHg 88%
    19:00 +22°C° 1 mm 1 mps 669 mmHg 92%
    20:00 +21°C° 0.5 mm 1 mps 669 mmHg 93%
    21:00 +21°C° 0.5 mm 1 mps 670 mmHg 93%
    22:00 +21°C° 0.5 mm 1 mps 670 mmHg 94%
    23:00 +20°C° 0.8 mm 2 mps 670 mmHg 95%

    12 December, Thursday

    Time Temperature Precipitation Wind Pressure Humidity
    00:00 +19°C° 0.8 mm 2 mps 670 mmHg 96%
    01:00 +19°C° 0.8 mm 2 mps 670 mmHg 97%
    02:00 +19°C° 0.5 mm 2 mps 669 mmHg 97%
    03:00 +19°C° 0.5 mm 2 mps 669 mmHg 98%
    04:00 +19°C° 0.5 mm 2 mps 669 mmHg 98%
    05:00 +19°C° 0.1 mm 2 mps 670 mmHg 98%
    06:00 +19°C° 0.1 mm 2 mps 670 mmHg 98%
    07:00 +19°C° 0.1 mm 2 mps 670 mmHg 98%
    08:00 +21°C° 0 mm 1 mps 671 mmHg 96%
    09:00 +21°C° 0 mm 1 mps 671 mmHg 95%
    10:00 +21°C° 0 mm 1 mps 671 mmHg 94%
    11:00 +22°C° 0 mm 1 mps 670 mmHg 91%
    12:00 +23°C° 0 mm 1 mps 670 mmHg 87%
    13:00 +23°C° 0 mm 2 mps 669 mmHg 84%
    14:00 +23°C° 0.1 mm 2 mps 669 mmHg 84%
    15:00 +23°C° 0.1 mm 2 mps 669 mmHg 84%
    16:00 +23°C° 0.1 mm 2 mps 669 mmHg 85%
    17:00 +22°C° 0 mm 1 mps 669 mmHg 89%
    18:00 +21°C° 0 mm 1 mps 669 mmHg 93%
    19:00 +20°C° 0 mm 1 mps 669 mmHg 98%
    20:00 +20°C° 0 mm 1 mps 669 mmHg 98%
    21:00 +20°C° 0 mm 1 mps 670 mmHg 98%
    22:00 +17°C° 0 mm 0 mps 670 mmHg 98%
    23:00 +17°C° 0 mm 0 mps 670 mmHg 98%

    13 December, Friday

    Time Temperature Precipitation Wind Pressure Humidity
    00:00 +18°C° 0 mm 0 mps 669 mmHg 98%
    01:00 +18°C° 0 mm 0 mps 669 mmHg 97%
    02:00 +17°C° 0 mm 0 mps 669 mmHg 98%
    03:00 +17°C° 0 mm 0 mps 669 mmHg 98%
    04:00 +17°C° 0 mm 0 mps 669 mmHg 98%
    05:00 +18°C° 0 mm 0 mps 669 mmHg 96%
    06:00 +19°C° 0 mm 0 mps 670 mmHg 93%
    07:00 +20°C° 0 mm 0 mps 671 mmHg 91%
    08:00 +22°C° 0 mm 0 mps 671 mmHg 83%
    09:00 +25°C° 0 mm 0 mps 672 mmHg 75%
    10:00 +27°C° 0 mm 0 mps 672 mmHg 67%
    11:00 +29°C° 0.5 mm 1 mps 671 mmHg 69%
    12:00 +28°C° 0.5 mm 1 mps 670 mmHg 72%
    13:00 +27°C° 0.5 mm 1 mps 669 mmHg 75%
    14:00 +27°C° 1.4 mm 1 mps 669 mmHg 79%
    15:00 +26°C° 1.4 mm 2 mps 668 mmHg 82%
    16:00 +26°C° 1.4 mm 2 mps 668 mmHg 86%
    17:00 +25°C° 0.9 mm 1 mps 668 mmHg 89%
    18:00 +23°C° 0.9 mm 1 mps 668 mmHg 92%
    19:00 +22°C° 0.9 mm 1 mps 669 mmHg 95%
    20:00 +21°C° 0.7 mm 1 mps 669 mmHg 95%
    21:00 +21°C° 0.7 mm 1 mps 669 mmHg 96%
    22:00 +21°C° 0.7 mm 1 mps 670 mmHg 96%
    23:00 +19°C° 0 mm 0 mps 670 mmHg 96%

    14 December, Saturday

    Time Temperature Precipitation Wind Pressure Humidity
    00:00 +19°C° 0 mm 0 mps 669 mmHg 96%
    01:00 +19°C° 0 mm 0 mps 669 mmHg 96%
    02:00 +18°C° 0 mm 0 mps 669 mmHg 96%
    03:00 +18°C° 0 mm 0 mps 669 mmHg 97%
    04:00 +18°C° 0 mm 0 mps 669 mmHg 97%
    05:00 +19°C° 0.1 mm 0 mps 669 mmHg 96%
    06:00 +19°C° 0.1 mm 0 mps 670 mmHg 95%
    07:00 +20°C° 0.1 mm 0 mps 670 mmHg 94%
    08:00 +22°C° 0.5 mm 0 mps 671 mmHg 88%
    09:00 +24°C° 0.5 mm 0 mps 671 mmHg 83%
    10:00 +26°C° 0.5 mm 0 mps 672 mmHg 77%
    11:00 +28°C° 1.6 mm 1 mps 671 mmHg 76%
    12:00 +28°C° 1.6 mm 1 mps 670 mmHg 75%
    13:00 +28°C° 1.6 mm 2 mps 669 mmHg 74%
    14:00 +27°C° 1.9 mm 1 mps 669 mmHg 78%
    15:00 +27°C° 1.9 mm 1 mps 668 mmHg 82%
    16:00 +26°C° 1.9 mm 1 mps 668 mmHg 87%
    17:00 +25°C° 0.9 mm 1 mps 668 mmHg 89%
    18:00 +24°C° 0.9 mm 1 mps 668 mmHg 90%
    19:00 +22°C° 0.9 mm 1 mps 669 mmHg 92%
    20:00 +22°C° 0.9 mm 1 mps 669 mmHg 93%
    21:00 +21°C° 0.9 mm 2 mps 670 mmHg 95%
    22:00 +20°C° 0.9 mm 2 mps 670 mmHg 96%
    23:00 +20°C° 0 mm 2 mps 670 mmHg 96%
    Show more